Back to catalog

STARLINK-36743

AliveCommunicationsVLEO
NORAD 67876·PAYLOAD·🇺🇸 United States

Launched Feb 20, 2026 from Vandenberg Space Force Base

Loading…

Next Passes (next 24 hours)

TLE

FreshSource: CelesTrak SupGP

Epoch: Sep 14, 2026, 21:05 UTC

1 67876C 26034AC  26257.87895833  .00049488  00000+0  14623-2 0  2579
2 67876  53.1599  43.8943 0001103  65.1119 298.6892 15.34362668    16

Track STARLINK-36743 in real time with AllMySat

Download on the App Store